2021-061E (49007 NORAD) Tracking and Keplerian Element Data

This shows tracking and keplerian element data for the satellite.

Feedback or suggestion? Click here.




ElementValue
Catalog49007
Name2021-061E
Epoch Orbit1281
Epoch Day269.07134731
Epoch Year2021
RAAN334.9121
Inclination97.53
Eccentricity0.0012793
Argument of Perigee359.416
Mean Anonmoly92.601
Mean Motion15.09940293
Decay Rate1.2E-05
L11 49007U 21061E 21269.07134731 .00001200 00000-0 77782-4 0 9994
L22 49007 97.5300 334.9121 0012793 359.4160 92.6010 15.09940293 12811

Live tracking and technical data element details for 2021-061E (NORAD 49007). 2021-061E can be tracked NOW for your location showing map with azimuth and elevation plus other details from your city location.

Track the satellite on the map from your city or location and see movement details for azimuth, elevation, latitude, longitude, range, height, and movement on the map or in text.







IsCatalogInMostPopularTable: catalog: 49007, numindb: 19
Update: records affected: 1



GetName: 49007 2021-061E

Hit Count: updated at: Sun, 26 Sep 2021 15:39:51 GMT